Location: Quesnel
(52.9830°N, 122.4830°W)
Time: 12:30:03
(UTC-07:00)

ISS - All Passes

Search period start: 25 June 2016 00:00
Search period end: 05 July 2016 00:00
Orbit: 402 x 403 km, 51.6° (Epoch: 25 June)

Date Brightness Start Highest point End Pass type
(mag) Time Alt. Az. Time Alt. Az. Time Alt. Az.
25 Jun - 11:20:13 10° SSW 11:22:55 24° SSE 11:25:38 10° E daylight
25 Jun - 12:55:46 10° WSW 12:59:01 61° S 13:02:15 10° E daylight
25 Jun - 14:32:06 10° W 14:35:21 64° S 14:38:35 10° ESE daylight
25 Jun - 16:08:40 10° W 16:11:29 26° SSW 16:14:17 10° SSE daylight
26 Jun - 10:28:14 10° S 10:30:23 16° SE 10:32:33 10° ESE daylight
26 Jun - 12:03:08 10° WSW 12:06:19 49° SSE 12:09:30 10° E daylight
26 Jun - 13:39:22 10° W 13:42:38 70° S 13:45:54 10° E daylight
26 Jun - 15:15:48 10° W 15:18:51 37° SSW 15:21:55 10° SE daylight
26 Jun - 16:53:53 10° SW 16:54:37 11° SW 16:55:21 10° SSW daylight
27 Jun - 09:37:05 10° SSE 09:37:54 11° SE 09:38:42 10° SE daylight
27 Jun - 11:10:36 10° SW 11:13:39 37° SSE 11:16:42 10° E daylight
27 Jun - 12:46:37 10° W 12:49:53 70° S 12:53:10 10° E daylight
27 Jun - 14:23:01 10° W 14:26:12 49° SSW 14:29:22 10° ESE daylight
27 Jun - 16:00:00 10° WSW 16:02:08 16° SW 16:04:16 10° S daylight
28 Jun - 10:18:13 10° SSW 10:21:02 27° SSE 10:23:51 10° E daylight
28 Jun - 11:53:55 10° WSW 11:57:09 64° S 12:00:24 10° E daylight
28 Jun - 13:30:15 10° W 13:33:30 61° S 13:36:44 10° ESE daylight
28 Jun - 15:06:52 10° W 15:09:34 24° SSW 15:12:17 10° SSE daylight
29 Jun - 09:26:06 10° SSW 09:28:26 19° SE 09:30:48 10° E daylight
29 Jun - 11:01:13 10° WSW 11:04:26 53° SSE 11:07:38 10° E daylight
29 Jun - 12:37:29 10° W 12:40:45 69° S 12:44:00 10° ESE daylight
29 Jun - 14:13:57 10° W 14:16:57 33° SSW 14:19:56 10° SE daylight
30 Jun - 08:34:31 10° SSE 08:35:55 12° SE 08:37:20 10° ESE daylight
30 Jun - 10:08:38 10° SW 10:11:44 40° SSE 10:14:50 10° E daylight
30 Jun - 11:44:43 10° W 11:47:59 71° S 11:51:15 10° E daylight
30 Jun - 13:21:07 10° W 13:24:16 45° SSW 13:27:25 10° SE daylight
30 Jun - 14:58:17 10° WSW 15:00:09 14° SW 15:02:01 10° S daylight
01 Jul - 09:16:09 10° SW 09:19:03 29° SSE 09:21:58 10° E daylight
01 Jul - 10:51:58 10° WSW 10:55:13 66° S 10:58:29 10° E daylight
01 Jul - 12:28:19 10° W 12:31:33 57° SSW 12:34:46 10° ESE daylight
01 Jul - 14:05:01 10° W 14:07:36 21° SSW 14:10:08 10° SSE daylight
02 Jul - 08:23:54 10° SSW 08:26:25 21° SSE 08:28:57 10° E daylight
02 Jul - 09:59:14 10° WSW 10:02:27 56° SSE 10:05:41 10° E daylight
02 Jul - 11:35:31 10° W 11:38:47 67° S 11:42:02 10° ESE daylight
02 Jul - 13:12:02 10° W 13:14:57 30° SSW 13:17:52 10° SE daylight
03 Jul - 07:32:04 10° S 07:33:51 14° SE 07:35:38 10° ESE daylight
03 Jul - 09:06:35 10° SW 09:09:42 44° SSE 09:12:51 10° E daylight
03 Jul - 10:42:44 10° W 10:45:59 71° S 10:49:15 10° E daylight
03 Jul - 12:19:08 10° W 12:22:15 41° SSW 12:25:22 10° SE daylight
03 Jul - 13:56:33 10° WSW 13:58:05 13° SW 13:59:37 10° S daylight
04 Jul - 08:14:02 10° SW 08:17:00 32° SSE 08:19:58 10° E daylight
04 Jul - 09:49:56 10° WSW 09:53:11 68° S 09:56:27 10° E daylight
04 Jul - 11:26:18 10° W 11:29:31 54° SSW 11:32:43 10° ESE daylight
04 Jul - 13:03:06 10° W 13:05:30 19° SSW 13:07:55 10° SSE daylight
